Погода в Нукусе

Погода в Нукусе : погода сейчас, прогноз погоды и архив. Всё, что Вы хотите узнать о погоде в Нукусе!

Поиск расширенной информации на нашем сайте:

Другие новости

Новости СМИ2

Главная страница сайта

Новости сайта

03.07.2017

Напоминаем, что на нашем специализированном сайте Метеоцентр.Азия вы можете получить высокодетализированные автоматические прогнозы погоды по пунктам России, СНГ и мира в авиационном формате (включающие направление и скорость ветра, видимость, явления погоды, количество и форму облачности, нижнюю и верхнюю границу облачности).

Рекомендуем: Дома и земельные участки: оформление прав на земельный участок.

Погода в Нукусе - сегодня

Время (UTC), дата Ветер
(°,м/с) 
Видим.   Явления Облачность Т
(°С)
Тd
(°С)
f(%) Тe
(°С)
Pmin
(гПа)
dP
(гПа)
Po
(мм)
O2
(г/м3)
Тmin Tmax R s Состояние
почвы
15 17.07.18 340 (С) 20000 м    1/0 средняя 
[Ac trans]
+37.1 +12.1 22 +41  1001.6  -0.3  745  262    +39.4       
18 17.07.18 050 (СВ) 20000 м    1/0 средняя 
[Ac trans]
+31.4 +13.2 33 +37  1001.8  745  267    +39.4       
21 17.07.18 тихо ()   20000 м    ясно 
+29.4 +10.2 30 +31  1001.8  745  269           
00 18.07.18 090 (В) 20000 м    ясно 
+29.7 +7.7 25 +30  1001.9  0.1  745  270           
03 18.07.18 080 (В) 20000 м    ясно 
+33 +8.4 22 +33  1003.5  1.5             
06 18.07.18 130 (ЮВ) 20000 м    1/0 средняя 
[Ac cast]
+37.8 +9.3 18 +38  1003.7  0.4  747  263  +27.4         
09 18.07.18 340 (С) 12  1000 м  пыльная буря  3/0 средняя 
[Ac cast]
+37 +13.9 25 +44  1004.1  0.4  747  262           
12 18.07.18 340 (С) 4000 м  мгла  ясно 
+39.1 +12 20 +43  1002.4  -1.6  746  261           
15 18.07.18 060 (СВ) 20000 м  мгла  1/0 средняя 
[Ac lent]
+39.3 +5.9 13 +39  1001.7  -0.7  745  262    +40.9       
18 18.07.18 010 (С) 20000 м    ясно 
+32.6 +6.7 20 +33  1002.8  0.8  746  267    +40.9       
21 18.07.18 320 (СЗ) 20000 м    ясно 
+27.5 +12.8 40 +33  1002.7  -0.2  746  270           
00 19.07.18 360 (С) 20000 м    ясно 
+26.2 +13.3 45 +32  1003.3  0.6  746  272    +2.5       
03 19.07.18 040 (СВ) 20000 м    ясно 
+30 +11.9 33 +30  1003.6  0.4             
06 19.07.18 050 (СВ) 20000 м    ясно 
+39.2 +7 14 +39  1003.4  746  262  +24.5         
09 19.07.18 нст () 20000 м    ясно 
+42.6 +6.4 11 +43  1002  -1.2  745  259           
12 19.07.18 260 (З) 20000 м    ясно 
+42.2 +9.5 14 +43  1001  -1  745  258           
15 19.07.18 320 (СЗ) 20000 м    3/0 средняя 
[Ac cast]
+39.2 +13.6 22 +46  1001.2  0.2  745  260    +43       
18 19.07.18 040 (СВ) 20000 м    1/0 средняя 
[Ac trans]
+34.5 +15 31 +43  1000.9  -0.4  745  263    +43       
21 19.07.18 050 (СВ) 20000 м    ясно 
+31.5 +10.7 28 +34  1000.3  -0.8  744  267           
00 20.07.18 140 (ЮВ) 20000 м    3/0 средняя 
[Ac trans]
+32.8 +6.2 19 +33  1000.7  0.4  744  267           
03 20.07.18 140 (ЮВ) 20000 м    ясно 
+34 +3.6 15 +34  1001.5  0.8  745  266           
06 20.07.18 150 (ЮВ) 20000 м    1/0 верхняя 
[Ci ing]
+39.1 +5.5 13 +39  1001.9  0.6  745  262  +30.1         
09 20.07.18 150 (ЮВ) 20000 м    ясно 
+42.1 +7.7 13 +42  1000.8  -1  745  259           
12 20.07.18 140 (ЮВ) 20000 м    ясно 
+43.5 +7.1 11 +44  999.5  -1.3  744  257           
15 20.07.18 140 (ЮВ) 20000 м    1/0 средняя 
[Ac trans]
+39.9 +7.8 14 +40  998.4  -1.1  743  260    +43.8       
Время (UTC), дата Ветер
(°,м/с) 
Видим.   Явления Облачность Т
(°С)
Тd
(°С)
f(%) Тe
(°С)
Pmin
(гПа)
dP
(гПа)
Po
(мм)
O2
(г/м3)
Тmin Tmax R s Состояние
почвы

Для получения пояснительной информации подведите курсор к названию столбца.

ПОГОДА в Нукусе - архив

Всё, что Вы хотите узнать о погоде в Нукусе - удобно и подробно!

Выберите нужную дату (начиная с 1 января 2015* года) и нажмите кнопку "Найти".
Будут отображены архивные сводки погоды по пункту Нукус, начиная с указанной даты.


Отображать данные в формате CSV (для использования в таблицах Excel)


Внимание! Наш архив погоды предназначен исключительно для личного некоммерческого использования в познавательных целях. Если Вам необходимы официальные справки о состоянии погоды (для производственных, юридических, коммерческих и т.п. целей), обращайтесь в органы Росгидромета.

*Примечание: данная дата относится к архиву по метеостанциям СССР (Россия, СНГ, Балтия).
Архив по метеостанциям Зарубежной Европы и Азии (кроме Китая) хранится 10 дней, по другим регионам земного шара (Китай, Африка, Америка, Австралия, Океания) - 1 день.

Нукус - район местоположения метеостанции


Название, широта, долгота, высота метеостанции:
Нукус 42.4°ш. 59.6°д. 77 м над ур. моря [Узбекистан]

Дополнительная информация

В oтличие oт бoльшинства пoгoдных сайтoв мы публикуем пoдрoбную метеoинфoрмацию в детальнoм прoфессиoнальнoм фoрмате.

Характеристики температуры и влажнoсти вoздуха измеряются на высoте 2 м в тени вдали oт зданий и деревьев.
Скoрoсть ветра измеряется на высoте 10 м (на урoвне рoста челoвека скoрoсть ветра ниже в 1.5-2 раза). Если метеoстанция нахoдится в гoрoде или в лесу, тo скoрoсть ветра занижена на 2-4 м/с пo сравнению с oткрытым местoм. Скoрoсть ветра над акватoриями крупных рек и oзёр, а также на вершинах хoлмoв на 2-5 м/с выше, чем в oбычных услoвиях.
Атмoсфернoе давление в разных тoчках местнoсти мoжет значительнo oтличаться oт давления на метеoстанции, в зависимoсти oт услoвий рельефа (при пoдъёме на 10 м давление пoнижается примернo на 1 мм рт.ст.).